GW0451 Weather Reports


time (UTC)temp
C
wind
direction
speed
KPH
gust
KPH
rain 1hr
cm
rain 24hr
cm
rain mn
cm
humidity
%
barometer
mb
20260507051039 10 0 0.0 0.0 0.00 0.48 0.00 81 1011.4
20260507050539 10 0 0.0 3.2 0.00 0.48 0.00 81 1011.4
20260507050052 10 0 0.0 3.2 0.00 0.48 0.00 81 1011.4
20260507045540 10 0 0.0 4.8 0.00 0.48 0.00 81 1011.4
20260507045040 10 0 0.0 4.8 0.00 0.48 0.00 81 1011.4
20260507044557 10 209 1.6 4.8 0.00 0.48 0.00 80 1011.6
20260507044040 10 213 0.0 4.8 0.00 0.48 0.00 80 1011.4
20260507043540 10 0 0.0 4.8 0.00 0.48 0.00 80 1011.2
20260507043057 10 288 0.0 4.8 0.00 0.48 0.00 80 1011.3
20260507042541 10 0 0.0 4.8 0.00 0.48 0.00 80 1011.3
20260507042040 10 0 0.0 4.8 0.00 0.48 0.00 79 1011.5
20260507041551 10 0 0.0 6.4 0.00 0.48 0.00 79 1011.3
20260507041039 10 0 0.0 6.4 0.00 0.48 0.00 79 1011.3
20260507040539 10 332 1.6 4.8 0.00 0.48 0.00 80 1011.4
20260507040049 10 0 0.0 3.2 0.00 0.48 0.00 80 1011.2
20260507035540 10 312 0.0 3.2 0.00 0.48 0.48 80 1011.0
20260507035040 10 0 0.0 3.2 0.00 0.48 0.48 79 1010.7
20260507034544 10 0 0.0 1.6 0.00 0.48 0.48 79 1010.9
20260507034038 11 0 0.0 0.0 0.00 0.48 0.48 79 1011.2
20260507033540 11 0 0.0 0.0 0.00 0.48 0.48 79 1011.3
20260507033051 11 0 0.0 1.6 0.00 0.48 0.48 79 1011.5
20260507032540 11 0 0.0 1.6 0.00 0.48 0.48 78 1011.5
20260507032044 11 0 0.0 1.6 0.00 0.48 0.48 78 1011.5
20260507031549 11 0 0.0 1.6 0.00 0.48 0.48 78 1011.5
20260507031039 11 0 0.0 1.6 0.00 0.48 0.48 79 1011.5
20260507030538 11 0 0.0 3.2 0.00 0.48 0.48 79 1011.3
20260507030050 11 0 0.0 3.2 0.00 0.48 0.48 79 1011.0
20260507025537 11 0 0.0 3.2 0.00 0.48 0.48 78 1011.1
20260507025039 11 343 0.0 6.4 0.00 0.48 0.48 78 1011.0
20260507024551 11 0 0.0 6.4 0.00 0.48 0.48 79 1011.3
20260507024040 11 24 0.0 4.8 0.00 0.48 0.48 79 1011.3
20260507023540 11 326 0.0 4.8 0.00 0.48 0.48 79 1011.4
20260507023047 11 0 0.0 4.8 0.00 0.48 0.48 79 1011.1
20260507022537 11 0 0.0 4.8 0.00 0.48 0.48 80 1011.2
20260507022037 11 0 0.0 4.8 0.00 0.48 0.48 79 1011.2
20260507021547 11 0 0.0 4.8 0.00 0.48 0.48 79 1011.3
20260507021039 11 285 0.0 4.8 0.00 0.48 0.48 79 1011.5
20260507020540 11 295 0.0 6.4 0.00 0.48 0.48 79 1011.6
20260507015542 11 0 0.0 4.8 0.00 0.48 0.48 79 1011.7
20260507015039 11 0 0.0 6.4 0.00 0.48 0.48 79 1011.5
20260507014557 11 0 0.0 6.4 0.00 0.48 0.48 79 1011.5
20260507014040 11 0 0.0 6.4 0.00 0.48 0.48 79 1011.8
20260507013536 11 0 1.6 8.0 0.00 0.48 0.48 79 1011.9
20260507013050 11 292 0.0 8.0 0.00 0.48 0.48 79 1011.8
20260507012643 11 322 0.0 11.3 0.00 0.48 0.48 79 1011.5
20260507012040 11 9 3.2 11.3 0.00 0.48 0.48 79 1011.7
20260507011543 11 342 1.6 8.0 0.00 0.48 0.48 79 1011.6
20260507011038 11 39 1.6 8.0 0.00 0.48 0.48 80 1011.5
20260507010539 11 351 0.0 9.7 0.00 0.48 0.48 79 1011.5
20260507010058 11 14 1.6 11.3 0.00 0.48 0.48 79 1011.5
20260507005538 11 14 3.2 11.3 0.00 0.48 0.48 80 1011.3
20260507005037 11 348 0.0 14.5 0.00 0.48 0.48 80 1011.4
20260507004550 12 5 3.2 14.5 0.00 0.48 0.48 80 1011.1
20260507004039 12 27 1.6 14.5 0.00 0.48 0.48 80 1010.9
20260507003540 12 20 4.8 14.5 0.00 0.48 0.48 80 1010.6
20260507003046 12 38 1.6 6.4 0.00 0.48 0.48 80 1010.4
20260507002540 12 0 1.6 8.0 0.00 0.48 0.48 81 1010.5
20260507002040 12 0 1.6 8.0 0.00 0.48 0.48 81 1010.5
20260507001554 12 0 0.0 4.8 0.00 0.48 0.48 81 1010.2
20260507001038 12 355 0.0 11.3 0.00 0.48 0.48 81 1010.1
20260507000541 12 0 1.6 11.3 0.00 0.48 0.48 81 1010.0
20260507000048 12 279 0.0 11.3 0.00 0.48 0.48 81 1009.9
20260506235540 12 269 3.2 9.7 0.00 0.48 0.48 81 1009.8
20260506235040 12 326 1.6 11.3 0.00 0.48 0.48 80 1009.8
20260506234547 12 341 1.6 11.3 0.00 0.48 0.48 80 1009.8
20260506234037 12 323 0.0 14.5 0.00 0.48 0.48 81 1009.6
20260506233538 12 0 4.8 17.7 0.00 0.48 0.48 80 1009.7
20260506233050 12 268 6.4 19.3 0.00 0.48 0.48 80 1009.7
20260506232537 13 292 1.6 19.3 0.00 0.48 0.48 81 1009.7
20260506232040 13 18 6.4 19.3 0.00 0.48 0.48 80 1009.6
20260506231604 13 72 1.6 12.9 0.00 0.48 0.48 81 1009.3
20260506231041 13 62 3.2 12.9 0.00 0.48 0.48 81 1009.3
20260506230541 13 302 1.6 19.3 0.00 0.48 0.48 81 1009.1
20260506230106 13 309 3.2 19.3 0.00 0.48 0.48 81 1008.9
20260506225538 13 348 4.8 19.3 0.00 0.48 0.48 80 1008.9
20260506225039 13 0 3.2 17.7 0.00 0.48 0.48 80 1008.8
20260506224550 13 323 4.8 19.3 0.00 0.48 0.48 80 1008.8
20260506224040 14 313 4.8 19.3 0.00 0.48 0.48 80 1008.8
20260506223543 15 318 3.2 19.3 0.00 0.48 0.48 81 1008.6
20260506223049 15 330 3.2 25.7 0.00 0.48 0.48 80 1008.3
20260506222540 15 0 4.8 25.7 0.00 0.48 0.48 79 1008.3
20260506222042 16 298 4.8 17.7 0.00 0.48 0.48 78 1008.2
20260506221608 17 360 1.6 8.0 0.00 0.48 0.48 82 1008.0
20260506221042 17 238 3.2 9.7 0.00 0.48 0.48 82 1007.7
20260506220537 17 245 1.6 17.7 0.00 0.48 0.48 81 1007.6
20260506220108 17 0 4.8 17.7 0.00 0.48 0.48 80 1007.4
20260506215539 17 279 6.4 17.7 0.00 0.48 0.48 79 1007.4
20260506215037 17 317 4.8 17.7 0.00 0.48 0.48 80 1007.1
20260506214549 18 273 3.2 19.3 0.00 0.48 0.48 81 1007.0
20260506214041 18 240 3.2 19.3 0.00 0.48 0.48 81 1007.0
20260506213540 18 237 3.2 14.5 0.00 0.48 0.48 82 1006.9
20260506213104 18 209 6.4 12.9 0.00 0.48 0.48 82 1006.8
20260506212540 18 257 4.8 11.3 0.00 0.48 0.48 83 1006.7
20260506212039 17 246 1.6 11.3 0.00 0.48 0.48 84 1006.7
20260506211548 17 264 4.8 9.7 0.00 0.48 0.48 84 1006.6
20260506211039 17 205 3.2 12.9 0.00 0.48 0.48 84 1006.7
20260506210539 17 192 3.2 12.9 0.00 0.48 0.48 84 1006.6
20260506210057 17 197 3.2 12.9 0.00 0.48 0.48 83 1006.6
20260506205539 17 202 3.2 12.9 0.00 0.48 0.48 83 1006.4
20260506205039 17 187 3.2 12.9 0.00 0.48 0.48 83 1006.4
20260506204556 17 229 1.6 14.5 0.00 0.48 0.48 83 1006.4
20260506204038 17 218 6.4 14.5 0.00 0.48 0.48 83 1006.4
20260506203542 17 265 1.6 11.3 0.00 0.48 0.48 83 1006.3
20260506203047 17 251 1.6 14.5 0.00 0.48 0.48 83 1006.3
20260506202540 17 238 4.8 14.5 0.00 0.48 0.48 83 1006.4
20260506202040 17 189 4.8 12.9 0.00 0.48 0.48 84 1006.2
20260506201550 17 201 4.8 12.9 0.00 0.48 0.48 84 1006.3
20260506201041 17 242 4.8 11.3 0.00 0.48 0.48 84 1006.4
20260506200539 17 202 4.8 12.9 0.00 0.48 0.48 84 1006.3
20260506200045 17 175 4.8 16.1 0.00 0.48 0.48 84 1006.4
20260506195539 17 242 6.4 16.1 0.00 0.48 0.48 83 1006.4
20260506195039 17 212 4.8 14.5 0.00 0.48 0.48 84 1006.5
20260506194550 17 193 3.2 17.7 0.00 0.48 0.48 84 1006.5
20260506194038 17 160 4.8 17.7 0.00 0.48 0.48 84 1006.4
20260506193539 17 210 3.2 12.9 0.00 0.48 0.48 84 1006.5
20260506193048 17 157 6.4 16.1 0.00 0.48 0.48 84 1006.5
20260506192539 17 221 4.8 16.1 0.00 0.48 0.48 85 1006.5
20260506192039 17 243 6.4 16.1 0.00 0.48 0.48 85 1006.6
20260506191549 17 234 6.4 16.1 0.00 0.48 0.48 85 1006.6
20260506191040 16 216 6.4 17.7 0.00 0.48 0.48 85 1006.8
20260506190542 16 196 6.4 17.7 0.00 0.48 0.48 85 1006.8
20260506190052 16 190 6.4 16.1 0.00 0.48 0.48 85 1006.8
20260506185539 16 185 4.8 22.5 0.00 0.48 0.48 85 1006.9
20260506185036 16 240 4.8 22.5 0.00 0.48 0.48 86 1006.8
20260506184559 16 204 6.4 12.9 0.00 0.48 0.48 86 1006.8
20260506184039 16 275 4.8 12.9 0.00 0.48 0.48 87 1006.8
20260506183541 16 196 4.8 14.5 0.00 0.48 0.48 87 1006.7
20260506183048 16 211 3.2 14.5 0.00 0.48 0.48 88 1006.6
20260506182540 16 234 4.8 14.5 0.00 0.48 0.48 88 1006.6
20260506182037 16 187 3.2 14.5 0.00 0.48 0.48 89 1006.7
20260506181548 16 245 0.0 12.9 0.00 0.48 0.48 89 1006.7
20260506181037 16 172 4.8 12.9 0.00 0.48 0.48 89 1006.7
20260506180540 16 130 4.8 12.9 0.00 0.48 0.48 89 1007.0
20260506180058 16 219 3.2 11.3 0.03 0.48 0.48 89 1007.0
20260506175540 16 200 3.2 12.9 0.03 0.48 0.48 89 1007.1
20260506175050 16 214 6.4 17.7 0.03 0.48 0.48 89 1007.0
20260506174547 16 240 6.4 17.7 0.03 0.48 0.48 89 1007.0
20260506174039 16 184 1.6 9.7 0.03 0.48 0.48 89 1007.1
20260506173539 16 225 3.2 11.3 0.03 0.48 0.48 89 1007.1
20260506173050 16 227 3.2 11.3 0.03 0.48 0.48 89 1007.0
20260506172539 16 231 1.6 9.7 0.03 0.48 0.48 89 1007.0
20260506172043 16 202 3.2 9.7 0.03 0.48 0.48 89 1007.0
20260506171557 16 213 1.6 14.5 0.03 0.48 0.48 88 1007.1
20260506171039 16 216 1.6 14.5 0.03 0.48 0.48 88 1007.2
20260506170536 16 217 4.8 14.5 0.03 0.48 0.48 88 1007.2
20260506170057 16 227 6.4 22.5 0.00 0.46 0.46 87 1007.3
20260506165538 16 194 8.0 22.5 0.00 0.46 0.46 86 1007.2
20260506165040 16 225 9.7 22.5 0.00 0.46 0.46 86 1007.3
20260506164553 16 155 8.0 22.5 0.00 0.46 0.46 86 1007.3
20260506164040 16 223 9.7 22.5 0.00 0.46 0.46 85 1007.2
20260506163539 16 202 9.7 22.5 0.00 0.46 0.46 86 1007.2
20260506163052 16 194 8.0 19.3 0.00 0.46 0.46 86 1007.2
20260506162540 16 171 6.4 20.9 0.00 0.46 0.46 86 1007.1
20260506162038 16 194 4.8 20.9 0.00 0.46 0.46 86 1007.0
20260506161553 16 165 6.4 20.9 0.03 0.46 0.46 86 1007.3
20260506161039 16 180 4.8 19.3 0.03 0.46 0.46 86 1007.3
20260506160539 15 222 6.4 19.3 0.05 0.46 0.46 86 1007.1
20260506160100 15 179 3.2 16.1 0.05 0.46 0.46 87 1007.2
20260506155538 15 169 4.8 16.1 0.08 0.46 0.46 87 1007.2
20260506155039 15 214 6.4 14.5 0.08 0.46 0.46 87 1007.2
20260506154553 15 128 4.8 14.5 0.10 0.46 0.46 87 1007.1
20260506154039 15 191 3.2 16.1 0.10 0.46 0.46 87 1007.0
20260506153538 15 232 4.8 16.1 0.13 0.46 0.46 88 1006.9
20260506153053 15 244 1.6 9.7 0.13 0.46 0.46 88 1006.7
20260506152541 15 0 0.0 12.9 0.13 0.46 0.46 88 1006.7
20260506152039 15 249 1.6 14.5 0.15 0.46 0.46 88 1006.8
20260506151550 15 185 1.6 14.5 0.13 0.43 0.43 88 1006.9
20260506151039 15 237 3.2 9.7 0.13 0.43 0.43 87 1007.0
20260506150538 15 227 0.0 16.1 0.10 0.41 0.41 87 1007.0
20260506150054 15 0 1.6 16.1 0.10 0.41 0.41 87 1007.1
20260506145537 15 0 6.4 16.1 0.10 0.38 0.38 87 1007.2
20260506145039 15 246 3.2 11.3 0.10 0.38 0.38 87 1007.4
20260506144559 15 190 1.6 8.0 0.10 0.36 0.36 87 1007.3
20260506144038 15 196 3.2 8.0 0.10 0.36 0.36 87 1007.3
20260506143540 15 231 1.6 6.4 0.10 0.33 0.33 86 1007.5
20260506143047 15 267 1.6 9.7 0.13 0.33 0.33 86 1007.4
20260506142540 15 226 3.2 11.3 0.13 0.33 0.33 86 1007.4
20260506142037 15 0 4.8 12.9 0.10 0.30 0.30 86 1007.3
20260506141547 15 182 1.6 14.5 0.10 0.30 0.30 86 1007.3
20260506141038 15 253 3.2 19.3 0.10 0.30 0.30 86 1007.2
20260506140537 15 247 4.8 19.3 0.13 0.30 0.30 86 1007.0
20260506140050 15 168 1.6 14.5 0.10 0.28 0.28 86 1007.2
20260506135538 15 217 1.6 14.5 0.13 0.28 0.28 85 1007.3
20260506135038 15 174 3.2 14.5 0.13 0.28 0.28 85 1007.4
20260506134549 15 153 6.4 14.5 0.13 0.25 0.25 85 1007.4
20260506134038 15 142 3.2 14.5 0.15 0.25 0.25 84 1007.3
20260506133538 15 165 4.8 11.3 0.10 0.20 0.20 84 1007.4
20260506133050 15 173 3.2 9.7 0.13 0.20 0.20 84 1007.5
20260506132541 15 0 3.2 9.7 0.13 0.20 0.20 83 1007.5
20260506132036 15 170 1.6 9.7 0.13 0.20 0.20 83 1007.5
20260506131557 15 180 3.2 11.3 0.15 0.20 0.20 83 1007.6
20260506131038 15 199 1.6 11.3 0.15 0.20 0.20 83 1007.6
20260506130540 16 169 4.8 11.3 0.13 0.18 0.18 82 1007.5
20260506130049 16 0 3.2 6.4 0.13 0.18 0.18 81 1007.7
20260506125538 16 0 1.6 6.4 0.13 0.15 0.15 81 1007.6
20260506125039 16 168 0.0 9.7 0.10 0.13 0.13 81 1007.8
20260506124547 16 172 1.6 12.9 0.10 0.13 0.13 80 1007.8
20260506124037 16 167 3.2 12.9 0.08 0.10 0.10 79 1007.9
20260506123537 16 227 1.6 12.9 0.10 0.10 0.10 79 1008.0
20260506123052 16 148 4.8 14.5 0.08 0.08 0.08 77 1008.0
20260506122547 16 0 3.2 14.5 0.08 0.08 0.08 77 1008.0
20260506122040 16 189 4.8 14.5 0.08 0.08 0.08 76 1008.0
20260506121547 17 209 4.8 12.9 0.05 0.05 0.05 75 1008.1
20260506121041 17 164 3.2 11.3 0.05 0.05 0.05 74 1007.9
20260506120538 17 0 0.0 8.0 0.05 0.05 0.05 74 1007.9
20260506120053 17 179 1.6 11.3 0.05 0.05 0.05 73 1007.8
20260506115539 17 236 1.6 11.3 0.03 0.03 0.03 71 1007.8
20260506115039 17 150 1.6 9.7 0.03 0.03 0.03 71 1007.7
20260506114554 18 149 1.6 8.0 0.03 0.03 0.03 69 1007.7
20260506114037 18 242 3.2 9.7 0.00 0.00 0.00 67 1007.7
20260506113538 18 240 3.2 12.9 0.00 0.00 0.00 66 1007.5
20260506113045 18 142 3.2 24.1 0.00 0.00 0.00 64 1007.5
20260506112539 18 160 9.7 24.1 0.00 0.00 0.00 63 1007.4
20260506112036 18 160 4.8 16.1 0.00 0.00 0.00 62 1007.4
20260506111547 19 165 6.4 19.3 0.00 0.00 0.00 61 1007.3
20260506111037 19 192 4.8 19.3 0.00 0.00 0.00 60 1007.2
20260506110538 19 183 3.2 24.1 0.00 0.00 0.00 59 1007.2
20260506110048 19 194 4.8 24.1 0.00 0.00 0.00 58 1007.0
20260506105540 19 221 4.8 19.3 0.00 0.00 0.00 58 1006.9
20260506105039 19 163 6.4 22.5 0.00 0.00 0.00 57 1006.8
20260506104551 19 175 6.4 22.5 0.00 0.00 0.00 57 1006.6
20260506104037 19 200 6.4 22.5 0.00 0.00 0.00 57 1006.6
20260506103537 19 179 6.4 17.7 0.00 0.00 0.00 56 1006.7
20260506103052 20 161 4.8 17.7 0.00 0.00 0.00 56 1006.5
20260506102538 20 185 9.7 19.3 0.00 0.00 0.00 56 1006.3
20260506102039 20 184 6.4 19.3 0.00 0.00 0.00 56 1006.3
20260506101547 20 165 6.4 12.9 0.00 0.00 0.00 56 1006.4
20260506101038 20 161 3.2 16.1 0.00 0.00 0.00 55 1006.4
20260506100537 20 174 6.4 16.1 0.00 0.00 0.00 55 1006.4
20260506100103 20 167 4.8 20.9 0.00 0.00 0.00 55 1006.4
20260506095538 20 159 4.8 20.9 0.00 0.00 0.00 54 1006.2
20260506095038 20 236 6.4 20.9 0.00 0.00 0.00 54 1006.2
20260506094549 20 181 3.2 20.9 0.00 0.00 0.00 54 1006.5
20260506094037 20 194 4.8 20.9 0.00 0.00 0.00 53 1006.5
20260506093536 20 140 4.8 19.3 0.00 0.00 0.00 53 1006.4
20260506093049 20 215 4.8 19.3 0.00 0.00 0.00 53 1006.4
20260506092538 20 168 4.8 17.7 0.00 0.00 0.00 52 1006.5
20260506092040 20 209 4.8 17.7 0.00 0.00 0.00 52 1006.4
20260506091553 20 181 6.4 16.1 0.00 0.00 0.00 52 1006.4
20260506091039 20 229 4.8 25.7 0.00 0.00 0.00 51 1006.6
20260506090537 20 175 4.8 25.7 0.00 0.00 0.00 51 1006.7
20260506090048 20 135 8.0 17.7 0.00 0.00 0.00 51 1006.5
20260506085537 20 176 3.2 19.3 0.00 0.00 0.00 50 1006.5
20260506085037 20 178 4.8 19.3 0.00 0.00 0.00 50 1006.5
20260506084555 20 196 3.2 17.7 0.00 0.00 0.00 50 1006.6
20260506084037 20 55 6.4 17.7 0.00 0.00 0.00 49 1006.5
20260506083539 20 226 4.8 14.5 0.00 0.00 0.00 49 1006.6
20260506083046 20 200 1.6 14.5 0.00 0.00 0.00 49 1006.6
20260506082537 20 162 3.2 12.9 0.00 0.00 0.00 48 1006.7
20260506082040 20 201 3.2 9.7 0.00 0.00 0.00 48 1006.6
20260506081545 20 180 3.2 9.7 0.00 0.00 0.00 48 1006.6
20260506081039 20 211 1.6 11.3 0.00 0.00 0.00 48 1006.7
20260506080538 20 0 3.2 16.1 0.00 0.00 0.00 47 1006.7
20260506073045 21 184 3.2 20.9 0.00 0.00 0.00 46 1006.9
20260506072537 21 151 4.8 20.9 0.00 0.00 0.00 45 1006.8
20260506072037 21 207 4.8 22.5 0.00 0.00 0.00 45 1006.9
20260506071552 21 180 9.7 22.5 0.00 0.00 0.00 45 1006.9
20260506071038 21 149 3.2 19.3 0.00 0.00 0.00 45 1007.0
20260506070541 21 179 3.2 22.5 0.00 0.00 0.00 44 1007.0
20260506062040 21 181 1.6 16.1 0.00 0.00 0.00 42 1007.5
20260506061549 21 139 4.8 17.7 0.00 0.00 0.00 42 1007.6
20260506061040 21 177 4.8 17.7 0.00 0.00 0.00 42 1007.6
20260506060539 21 214 3.2 16.1 0.00 0.00 0.00 42 1007.7